• Processing (Info)

  • MPEC 2010-N55 : 2010 NW1

    The following Minor Planet Electronic Circular may be linked-to from your own Web pages, but must not otherwise be redistributed electronically.

    A form allowing access to any MPEC is at the bottom of this page.


    Read MPEC 2010-N54 Read MPEC 2010-N56


    M.P.E.C. 2010-N55                                Issued 2010 July 13, 19:24 UT
    
         The Minor Planet Electronic Circulars contain information on unusual
             minor planets and routine data on comets.  They are published
       on behalf of Commission 20 of the International Astronomical Union by the
              Minor Planet Center, Smithsonian Astrophysical Observatory,
                              Cambridge, MA 02138, U.S.A.
    
                 Prepared using the Tamkin Foundation Computer Network
    
                                  MPC@CFA.HARVARD.EDU
           URL https://www.minorplanetcenter.org/iau/mpc.html  ISSN 1523-6714
    
                                       2010 NW1
    
    Observations:
         K10N01W* S2010 07 05.18156 01 12 42.40 -11 23 30.5          22   R EN055C51
         K10N01W  s2010 07 05.18156 1 + 6678.1074 +  994.9207 - 1468.9557   EN055C51
         K10N01W  S2010 07 05.18169 01 12 42.33 -11 23 32.9                 EN055C51
         K10N01W  s2010 07 05.18169 1 + 6661.9400 +  981.2362 - 1549.7853   EN055C51
         K10N01W  S2010 07 05.44629 01 13 10.04 -11 29 02.1                 EN055C51
         K10N01W  s2010 07 05.44629 1 + 6657.3781 + 1011.5983 - 1548.9520   EN055C51
         K10N01W  S2010 07 05.57860 01 13 23.95 -11 31 46.0                 EN055C51
         K10N01W  s2010 07 05.57860 1 + 6655.6507 + 1027.0822 - 1546.2156   EN055C51
         K10N01W  S2010 07 05.77699 01 13 44.52 -11 35 53.4                 EN055C51
         K10N01W  s2010 07 05.77699 1 + 6660.1414 + 1056.6644 - 1505.6145   EN055C51
         K10N01W  S2010 07 05.97551 01 14 05.19 -11 40 03.7                 EN055C51
         K10N01W  s2010 07 05.97551 1 + 6648.7449 + 1072.7468 - 1544.9673   EN055C51
         K10N01W  S2010 07 06.04160 01 14 12.22 -11 41 25.4                 EN055C51
         K10N01W  s2010 07 06.04160 1 + 6655.8915 + 1087.5735 - 1503.7864   EN055C51
         K10N01W  S2010 07 06.17390 01 14 25.85 -11 44 10.9                 EN055C51
         K10N01W  s2010 07 06.17390 1 + 6653.7509 + 1102.8664 - 1502.4191   EN055C51
         K10N01W  S2010 07 06.57081 01 15 06.78 -11 52 32.5                 EN055C51
         K10N01W  s2010 07 06.57081 1 + 6646.5493 + 1148.6312 - 1499.0027   EN055C51
         K10N01W {C2010 07 13.46429 01 26 20.51 -14 24 17.5          19.9 R EN055675
         K10N01W {C2010 07 13.46644 01 26 20.73 -14 24 20.0          19.9 R EN055675
         K10N01W {C2010 07 13.46856 01 26 21.08 -14 24 23.4          19.8 R EN055675
         K10N01W {C2010 07 13.47071 01 26 21.06 -14 24 26.5          19.7 R EN055675
         K10N01W {C2010 07 13.47285 01 26 21.33 -14 24 29.7          19.8 R EN055675
         K10N01W  C2010 07 13.74965 01 26 46.52 -14 30 42.7          20.4 R EN055474
         K10N01W  C2010 07 13.75162 01 26 46.71 -14 30 45.3          20.2 R EN055474
         K10N01W  C2010 07 13.75347 01 26 46.90 -14 30 48.3          20.6 R EN055474
    
    Observer details:
    474 Mount John Observatory, Lake Tekapo.  Observers A. C. Gilmore,
        P. M. Kilmartin.  Measurer P. M. Kilmartin.  1.0-m f/7.7 reflector + CCD.
    675 Palomar Mountain.  Observers J. M. Bauer, A. N. Wilkins.  Measurer
        J. M. Bauer.
    C51 WISE.  Measurers A. Mainzer, E. Wright, J. Bauer, T. Grav, J. Dailey, J.
        Masiero, R. Cutri, R. McMillan, R. Walker.
        (http://wise.ssl.berkeley.edu/mission_sci.html)
    
    Orbital elements:
    2010 NW1                                                 Earth MOID = 0.3923 AU
    Epoch 2010 July 23.0 TT = JDT 2455400.5                 MPC
    M  20.10713              (2000.0)            P               Q
    n   0.17022131     Peri.  131.73348     +0.08713936     +0.89636500
    a   3.2244831      Node   136.62860     -0.99260767     +0.04112309
    e   0.6046158      Incl.   39.26873     +0.08447922     -0.44140534
    P   5.79           H   17.5           G   0.15           U   8
    Residuals in seconds of arc
    100705 C51  1.1+  1.5+    100706 C51  1.5+  0.2+    100713 675  0.7-  0.1-
    100705 C51  0.2-  0.8-    100706 C51  0.3+  0.9+    100713 675  0.4+  0.4-
    100705 C51  0.6-  1.0-    100706 C51  0.7-  0.2-    100713 474  0.9-  0.1+
    100705 C51  0.5+  0.0     100713 675  0.2-  0.0     100713 474  0.7-  0.2+
    100705 C51  1.3-  0.5+    100713 675  0.1+  0.5+    100713 474  0.4-  0.2-
    100705 C51  0.9-  1.1-    100713 675  2.4+  0.0
    
    Ephemeris:
    2010 NW1                 a,e,i = 3.22, 0.60, 39                  q = 1.2749
    Date    TT    R. A. (2000) Decl.     Delta      r     Elong.  Phase     V
    2010 07 13    01 25.62   -14 13.6    1.335    1.758    95.8    35.1    20.8
    2010 07 23    01 39.68   -18 13.9    1.315    1.829   102.7    32.8    20.8
    2010 08 02    01 50.62   -22 34.9    1.304    1.901   109.5    30.2    20.8
    2010 08 12    01 57.96   -27 08.6    1.305    1.973   116.1    27.5    20.8
    2010 08 22    02 01.26   -31 42.0    1.321    2.046   122.1    24.8    20.8
    2010 09 01    02 00.32   -35 59.8    1.354    2.119   126.8    22.4    20.9
    2010 09 11    01 55.16   -39 45.8    1.405    2.191   129.9    20.6    21.0
    2010 09 21    01 46.39   -42 45.3    1.475    2.263   130.9    19.6    21.1
    2010 10 01    01 35.21   -44 49.1    1.563    2.335   129.9    19.2    21.3
    2010 10 11    01 23.21   -45 54.8    1.668    2.406   127.1    19.3    21.5
    2010 10 21    01 12.08   -46 05.9    1.788    2.476   123.0    19.7    21.7
    2010 10 31    01 03.10   -45 31.3    1.922    2.545   118.0    20.1    22.0
    
    Sonia Keys                   (C) Copyright 2010 MPC           M.P.E.C. 2010-N55
    

    Read MPEC 2010-N54 Read MPEC 2010-N56


    MPEC number:

    Enter an MPEC number in one of the following forms:

    • 1997-B01 (the full form)
    • J97B01 (the packed version of the full form)
    • B01 (the abbreviated form)